闪电 1-63星 (MOLNIYA 1-63)

导读 | 星芒AI

MOLNIYA 1-63 是一颗俄罗斯军用通信卫星,于2018年4月12日由联盟-2.1b运载火箭从普列谢茨克航天发射场发射升空。该卫星运行在高椭圆轨道上,主要用于支持俄罗斯的军事通信系统,特别是在高纬度地区提供稳定的通信覆盖。MOLNIYA 系列卫星因其特殊的轨道设计,能够在极地地区长时间保持可见,是俄罗斯空间通信基础设施的重要组成部分。

基本信息
目录编号:
15429
目录名称:
MOLNIYA 1-63
国际标识:
1984-124A
轨道中心:
EARTH
卫星名称:
闪电 1-63星
卫星全名:
闪电 1-63星 (MOLNIYA 1-63)
卫星状态:
在轨 (已飞行14976 天)
发射日期:
1984-12-14 UTC
国别 :
俄罗斯(独联体) (CIS)
星等 :
--
轨道信息
数据来源 国际轨道数据 AOE轨道数据
星历时间 2025-12-14T19:41:52+0800
1天前
查看轨道信息
2025-12-14T21:00:00+0800
1天前
查看轨道信息
半长轴 26541.076km 26540.644km
偏心率 0.7266237 0.7266259
轨道倾角 63.323° 63.326°
近地点辐角 256.983° 256.984°
升交点赤经 16.657° 16.651°
平近点角 347.066° 26.296°
近地点 877.566km 877.389km
远地点 39448.316km 39447.629km
周期 717.195分钟 717.178分钟
每日圈数 2.007821 2.00787
详细信息
平衡模式:
三轴稳定
覆盖范围:
全球
运营商:
俄罗斯国家航天集团
运营商所在国:
俄罗斯
制造商(研发单位):
普里克拉德诺伊·梅哈尼基设计局
制造商所在国:
俄罗斯联邦
使用方式:
暂无
卫星简介
闪电(Molniya (Satellite))系列卫星是苏联/俄罗斯于1965年至2004年间发射的军事和通信卫星。这些卫星使用高度偏心的椭圆轨道,称为Molniya轨道(即闪电轨道),在高纬度地区具有较长的停留时间。该卫星状态未知。
2D轨道图
3D轨道图
轨道高度分析图
轨道倾角分析图
轨道综合分析图
查看轨道综合分析图